Location: Makanda
(37.6176°N, 89.2090°W)
Time: 08:06:12
(UTC+00:00)

N. Korean satellite - Visible Passes

Search period start: 17 November 2019 00:00
Search period end: 27 November 2019 00:00
Orbit: 456 x 506 km, 97.2° (Epoch: 16 November)

Date Brightness Start Highest point End Pass type
(mag) Time Alt. Az. Time Alt. Az. Time Alt. Az.
17 Nov 6.8 11:45:32 10° NNE 11:49:15 79° ESE 11:52:54 10° S visible
17 Nov 9.6 23:53:01 10° SW 23:55:44 20° W 23:58:30 10° NW visible
18 Nov 8.5 11:20:26 10° NNE 11:23:50 34° E 11:27:11 10° SSE visible
18 Nov 8.0 23:26:48 10° S 23:30:14 43° W 23:33:46 10° NNW visible
19 Nov 9.8 10:55:55 10° NE 10:58:19 16° E 11:00:41 10° SE visible
20 Nov 6.6 12:02:48 10° N 12:06:27 58° WNW 12:10:00 10° SSW visible
21 Nov 10.1 00:11:30 10° WSW 00:13:04 12° W 00:14:38 10° WNW visible
21 Nov 7.2 11:37:25 10° NNE 11:41:05 60° E 11:44:39 10° S visible
21 Nov 9.1 23:44:26 10° SSW 23:47:31 25° W 23:50:38 10° NW visible
22 Nov 8.9 11:12:27 10° NE 11:15:37 27° E 11:18:43 10° SSE visible
22 Nov 7.4 23:18:27 10° S 23:22:02 57° W 23:25:41 10° NNW visible
23 Nov 10.0 10:48:20 10° ENE 10:50:03 13° E 10:51:46 10° ESE visible
24 Nov 6.5 11:54:35 10° N 11:58:15 75° WNW 12:01:50 10° SSW visible
25 Nov 9.9 00:02:30 10° SW 00:04:47 16° W 00:07:05 10° NW visible
25 Nov 7.8 11:29:18 10° NNE 11:32:51 46° E 11:36:18 10° S visible
25 Nov 8.6 23:35:56 10° SSW 23:39:15 32° W 23:42:37 10° NNW visible
26 Nov 9.3 11:04:30 10° NE 11:07:20 21° E 11:10:07 10° SE visible
26 Nov 6.9 23:10:09 10° S 23:13:48 75° W 23:17:32 10° NNW visible
